<?xml version="1.0"?>
<gpx xmlns="http://www.topografix.com/GPX/1/1" xmlns:xsi="http://www.w3.org/2001/XMLSchema-instance" version="1.1" creator="GPX RubyGem 1.0.0 -- http://dougfales.github.io/gpx/" xsi:schemaLocation="http://www.topografix.com/GPX/1/1 http://www.topografix.com/GPX/1/1/gpx.xsd">
  <metadata>
    <name/>
    <time>2026-05-05T02:43:38+00:00</time>
    <bound minlat="90.0" minlon="180.0" maxlat="-90.0" maxlon="-180.0"/>
  </metadata>
  <trk>
    <name/>
    <trkseg>
      <trkpt lat="42.462274" lon="18.682704">
        <time>1970-01-01T00:00:00+00:00</time>
        <ele>3.0</ele>
      </trkpt>
      <trkpt lat="42.462315" lon="18.682704">
        <time>1970-01-01T00:00:00+00:00</time>
        <ele>3.0</ele>
      </trkpt>
      <trkpt lat="42.462425" lon="18.682731">
        <time>1970-01-01T00:00:00+00:00</time>
        <ele>2.0</ele>
      </trkpt>
      <trkpt lat="42.462557" lon="18.682811">
        <time>1970-01-01T00:00:00+00:00</time>
        <ele>3.0</ele>
      </trkpt>
      <trkpt lat="42.462795" lon="18.683062">
        <time>1970-01-01T00:00:00+00:00</time>
        <ele>3.0</ele>
      </trkpt>
      <trkpt lat="42.462973" lon="18.683219">
        <time>1970-01-01T00:00:00+00:00</time>
        <ele>3.0</ele>
      </trkpt>
      <trkpt lat="42.462923" lon="18.683285">
        <time>1970-01-01T00:00:00+00:00</time>
        <ele>4.0</ele>
      </trkpt>
      <trkpt lat="42.462948" lon="18.683395">
        <time>1970-01-01T00:00:00+00:00</time>
        <ele>4.0</ele>
      </trkpt>
      <trkpt lat="42.463076" lon="18.683569">
        <time>1970-01-01T00:00:00+00:00</time>
        <ele>5.0</ele>
      </trkpt>
      <trkpt lat="42.463271" lon="18.683686">
        <time>1970-01-01T00:00:00+00:00</time>
        <ele>6.0</ele>
      </trkpt>
      <trkpt lat="42.463311" lon="18.683755">
        <time>1970-01-01T00:00:00+00:00</time>
        <ele>7.0</ele>
      </trkpt>
      <trkpt lat="42.463318" lon="18.683833">
        <time>1970-01-01T00:00:00+00:00</time>
        <ele>9.0</ele>
      </trkpt>
      <trkpt lat="42.463307" lon="18.68388">
        <time>1970-01-01T00:00:00+00:00</time>
        <ele>11.0</ele>
      </trkpt>
      <trkpt lat="42.463267" lon="18.683903">
        <time>1970-01-01T00:00:00+00:00</time>
        <ele>12.0</ele>
      </trkpt>
      <trkpt lat="42.463046" lon="18.683824">
        <time>1970-01-01T00:00:00+00:00</time>
        <ele>14.0</ele>
      </trkpt>
      <trkpt lat="42.462913" lon="18.683872">
        <time>1970-01-01T00:00:00+00:00</time>
        <ele>18.0</ele>
      </trkpt>
      <trkpt lat="42.462787" lon="18.683955">
        <time>1970-01-01T00:00:00+00:00</time>
        <ele>24.0</ele>
      </trkpt>
      <trkpt lat="42.462576" lon="18.684022">
        <time>1970-01-01T00:00:00+00:00</time>
        <ele>33.0</ele>
      </trkpt>
      <trkpt lat="42.462333" lon="18.684135">
        <time>1970-01-01T00:00:00+00:00</time>
        <ele>42.0</ele>
      </trkpt>
      <trkpt lat="42.462242" lon="18.684123">
        <time>1970-01-01T00:00:00+00:00</time>
        <ele>44.0</ele>
      </trkpt>
      <trkpt lat="42.462174" lon="18.684064">
        <time>1970-01-01T00:00:00+00:00</time>
        <ele>44.0</ele>
      </trkpt>
      <trkpt lat="42.461989" lon="18.683795">
        <time>1970-01-01T00:00:00+00:00</time>
        <ele>38.0</ele>
      </trkpt>
      <trkpt lat="42.461932" lon="18.68378">
        <time>1970-01-01T00:00:00+00:00</time>
        <ele>36.0</ele>
      </trkpt>
      <trkpt lat="42.461856" lon="18.683812">
        <time>1970-01-01T00:00:00+00:00</time>
        <ele>37.0</ele>
      </trkpt>
      <trkpt lat="42.461794" lon="18.683868">
        <time>1970-01-01T00:00:00+00:00</time>
        <ele>37.0</ele>
      </trkpt>
      <trkpt lat="42.461658" lon="18.684156">
        <time>1970-01-01T00:00:00+00:00</time>
        <ele>47.0</ele>
      </trkpt>
      <trkpt lat="42.461638" lon="18.684261">
        <time>1970-01-01T00:00:00+00:00</time>
        <ele>49.0</ele>
      </trkpt>
      <trkpt lat="42.461648" lon="18.684347">
        <time>1970-01-01T00:00:00+00:00</time>
        <ele>51.0</ele>
      </trkpt>
      <trkpt lat="42.461779" lon="18.684525">
        <time>1970-01-01T00:00:00+00:00</time>
        <ele>56.0</ele>
      </trkpt>
      <trkpt lat="42.461816" lon="18.684802">
        <time>1970-01-01T00:00:00+00:00</time>
        <ele>61.0</ele>
      </trkpt>
      <trkpt lat="42.461899" lon="18.685009">
        <time>1970-01-01T00:00:00+00:00</time>
        <ele>63.0</ele>
      </trkpt>
      <trkpt lat="42.461905" lon="18.685062">
        <time>1970-01-01T00:00:00+00:00</time>
        <ele>63.0</ele>
      </trkpt>
      <trkpt lat="42.461828" lon="18.685218">
        <time>1970-01-01T00:00:00+00:00</time>
        <ele>67.0</ele>
      </trkpt>
      <trkpt lat="42.46176" lon="18.685274">
        <time>1970-01-01T00:00:00+00:00</time>
        <ele>69.0</ele>
      </trkpt>
      <trkpt lat="42.461715" lon="18.685284">
        <time>1970-01-01T00:00:00+00:00</time>
        <ele>70.0</ele>
      </trkpt>
      <trkpt lat="42.461424" lon="18.685749">
        <time>1970-01-01T00:00:00+00:00</time>
        <ele>81.0</ele>
      </trkpt>
      <trkpt lat="42.46127" lon="18.686175">
        <time>1970-01-01T00:00:00+00:00</time>
        <ele>91.0</ele>
      </trkpt>
      <trkpt lat="42.460692" lon="18.687307">
        <time>1970-01-01T00:00:00+00:00</time>
        <ele>125.0</ele>
      </trkpt>
      <trkpt lat="42.459837" lon="18.688828">
        <time>1970-01-01T00:00:00+00:00</time>
        <ele>182.0</ele>
      </trkpt>
      <trkpt lat="42.459739" lon="18.689045">
        <time>1970-01-01T00:00:00+00:00</time>
        <ele>186.0</ele>
      </trkpt>
      <trkpt lat="42.459608" lon="18.689496">
        <time>1970-01-01T00:00:00+00:00</time>
        <ele>191.0</ele>
      </trkpt>
      <trkpt lat="42.459444" lon="18.689919">
        <time>1970-01-01T00:00:00+00:00</time>
        <ele>197.0</ele>
      </trkpt>
      <trkpt lat="42.459319" lon="18.690367">
        <time>1970-01-01T00:00:00+00:00</time>
        <ele>206.0</ele>
      </trkpt>
      <trkpt lat="42.459238" lon="18.690542">
        <time>1970-01-01T00:00:00+00:00</time>
        <ele>208.0</ele>
      </trkpt>
      <trkpt lat="42.45903" lon="18.690882">
        <time>1970-01-01T00:00:00+00:00</time>
        <ele>213.0</ele>
      </trkpt>
      <trkpt lat="42.458941" lon="18.691094">
        <time>1970-01-01T00:00:00+00:00</time>
        <ele>217.0</ele>
      </trkpt>
      <trkpt lat="42.458882" lon="18.691293">
        <time>1970-01-01T00:00:00+00:00</time>
        <ele>220.0</ele>
      </trkpt>
      <trkpt lat="42.458812" lon="18.69176">
        <time>1970-01-01T00:00:00+00:00</time>
        <ele>230.0</ele>
      </trkpt>
      <trkpt lat="42.458529" lon="18.692934">
        <time>1970-01-01T00:00:00+00:00</time>
        <ele>255.0</ele>
      </trkpt>
      <trkpt lat="42.458458" lon="18.693095">
        <time>1970-01-01T00:00:00+00:00</time>
        <ele>259.0</ele>
      </trkpt>
      <trkpt lat="42.458355" lon="18.6936">
        <time>1970-01-01T00:00:00+00:00</time>
        <ele>268.0</ele>
      </trkpt>
      <trkpt lat="42.458276" lon="18.694149">
        <time>1970-01-01T00:00:00+00:00</time>
        <ele>273.0</ele>
      </trkpt>
      <trkpt lat="42.458252" lon="18.694426">
        <time>1970-01-01T00:00:00+00:00</time>
        <ele>275.0</ele>
      </trkpt>
      <trkpt lat="42.458185" lon="18.694823">
        <time>1970-01-01T00:00:00+00:00</time>
        <ele>280.0</ele>
      </trkpt>
      <trkpt lat="42.458157" lon="18.695587">
        <time>1970-01-01T00:00:00+00:00</time>
        <ele>284.0</ele>
      </trkpt>
      <trkpt lat="42.458112" lon="18.695815">
        <time>1970-01-01T00:00:00+00:00</time>
        <ele>287.0</ele>
      </trkpt>
      <trkpt lat="42.458096" lon="18.695989">
        <time>1970-01-01T00:00:00+00:00</time>
        <ele>288.0</ele>
      </trkpt>
      <trkpt lat="42.458048" lon="18.69611">
        <time>1970-01-01T00:00:00+00:00</time>
        <ele>291.0</ele>
      </trkpt>
      <trkpt lat="42.458041" lon="18.696271">
        <time>1970-01-01T00:00:00+00:00</time>
        <ele>291.0</ele>
      </trkpt>
      <trkpt lat="42.457946" lon="18.696719">
        <time>1970-01-01T00:00:00+00:00</time>
        <ele>296.0</ele>
      </trkpt>
      <trkpt lat="42.457892" lon="18.696907">
        <time>1970-01-01T00:00:00+00:00</time>
        <ele>300.0</ele>
      </trkpt>
      <trkpt lat="42.457868" lon="18.697103">
        <time>1970-01-01T00:00:00+00:00</time>
        <ele>301.0</ele>
      </trkpt>
      <trkpt lat="42.457819" lon="18.697293">
        <time>1970-01-01T00:00:00+00:00</time>
        <ele>304.0</ele>
      </trkpt>
      <trkpt lat="42.457748" lon="18.697832">
        <time>1970-01-01T00:00:00+00:00</time>
        <ele>310.0</ele>
      </trkpt>
      <trkpt lat="42.457615" lon="18.698336">
        <time>1970-01-01T00:00:00+00:00</time>
        <ele>321.0</ele>
      </trkpt>
      <trkpt lat="42.45754" lon="18.698535">
        <time>1970-01-01T00:00:00+00:00</time>
        <ele>327.0</ele>
      </trkpt>
      <trkpt lat="42.457453" lon="18.698739">
        <time>1970-01-01T00:00:00+00:00</time>
        <ele>333.0</ele>
      </trkpt>
      <trkpt lat="42.457356" lon="18.698894">
        <time>1970-01-01T00:00:00+00:00</time>
        <ele>339.0</ele>
      </trkpt>
      <trkpt lat="42.457132" lon="18.699474">
        <time>1970-01-01T00:00:00+00:00</time>
        <ele>348.0</ele>
      </trkpt>
      <trkpt lat="42.457107" lon="18.699576">
        <time>1970-01-01T00:00:00+00:00</time>
        <ele>349.0</ele>
      </trkpt>
      <trkpt lat="42.456892" lon="18.700083">
        <time>1970-01-01T00:00:00+00:00</time>
        <ele>355.0</ele>
      </trkpt>
      <trkpt lat="42.456721" lon="18.700458">
        <time>1970-01-01T00:00:00+00:00</time>
        <ele>361.0</ele>
      </trkpt>
      <trkpt lat="42.456634" lon="18.700592">
        <time>1970-01-01T00:00:00+00:00</time>
        <ele>364.0</ele>
      </trkpt>
      <trkpt lat="42.456566" lon="18.700807">
        <time>1970-01-01T00:00:00+00:00</time>
        <ele>365.0</ele>
      </trkpt>
      <trkpt lat="42.45641" lon="18.701155">
        <time>1970-01-01T00:00:00+00:00</time>
        <ele>367.0</ele>
      </trkpt>
      <trkpt lat="42.456341" lon="18.701386">
        <time>1970-01-01T00:00:00+00:00</time>
        <ele>366.0</ele>
      </trkpt>
      <trkpt lat="42.456208" lon="18.701547">
        <time>1970-01-01T00:00:00+00:00</time>
        <ele>365.0</ele>
      </trkpt>
      <trkpt lat="42.456119" lon="18.701534">
        <time>1970-01-01T00:00:00+00:00</time>
        <ele>368.0</ele>
      </trkpt>
      <trkpt lat="42.456074" lon="18.701558">
        <time>1970-01-01T00:00:00+00:00</time>
        <ele>369.0</ele>
      </trkpt>
      <trkpt lat="42.455985" lon="18.701684">
        <time>1970-01-01T00:00:00+00:00</time>
        <ele>367.0</ele>
      </trkpt>
      <trkpt lat="42.455939" lon="18.701772">
        <time>1970-01-01T00:00:00+00:00</time>
        <ele>365.0</ele>
      </trkpt>
      <trkpt lat="42.455892" lon="18.701922">
        <time>1970-01-01T00:00:00+00:00</time>
        <ele>362.0</ele>
      </trkpt>
      <trkpt lat="42.455816" lon="18.702038">
        <time>1970-01-01T00:00:00+00:00</time>
        <ele>362.0</ele>
      </trkpt>
      <trkpt lat="42.455791" lon="18.702105">
        <time>1970-01-01T00:00:00+00:00</time>
        <ele>361.0</ele>
      </trkpt>
      <trkpt lat="42.455761" lon="18.702148">
        <time>1970-01-01T00:00:00+00:00</time>
        <ele>361.0</ele>
      </trkpt>
      <trkpt lat="42.455673" lon="18.702214">
        <time>1970-01-01T00:00:00+00:00</time>
        <ele>361.0</ele>
      </trkpt>
      <trkpt lat="42.45559" lon="18.702206">
        <time>1970-01-01T00:00:00+00:00</time>
        <ele>363.0</ele>
      </trkpt>
      <trkpt lat="42.455478" lon="18.701965">
        <time>1970-01-01T00:00:00+00:00</time>
        <ele>371.0</ele>
      </trkpt>
      <trkpt lat="42.455615" lon="18.701378">
        <time>1970-01-01T00:00:00+00:00</time>
        <ele>386.0</ele>
      </trkpt>
      <trkpt lat="42.455654" lon="18.701059">
        <time>1970-01-01T00:00:00+00:00</time>
        <ele>393.0</ele>
      </trkpt>
      <trkpt lat="42.455721" lon="18.70085">
        <time>1970-01-01T00:00:00+00:00</time>
        <ele>396.0</ele>
      </trkpt>
      <trkpt lat="42.455759" lon="18.700412">
        <time>1970-01-01T00:00:00+00:00</time>
        <ele>403.0</ele>
      </trkpt>
      <trkpt lat="42.455737" lon="18.700343">
        <time>1970-01-01T00:00:00+00:00</time>
        <ele>405.0</ele>
      </trkpt>
      <trkpt lat="42.455749" lon="18.700144">
        <time>1970-01-01T00:00:00+00:00</time>
        <ele>408.0</ele>
      </trkpt>
      <trkpt lat="42.455727" lon="18.699726">
        <time>1970-01-01T00:00:00+00:00</time>
        <ele>419.0</ele>
      </trkpt>
      <trkpt lat="42.455747" lon="18.699594">
        <time>1970-01-01T00:00:00+00:00</time>
        <ele>420.0</ele>
      </trkpt>
      <trkpt lat="42.455745" lon="18.69924">
        <time>1970-01-01T00:00:00+00:00</time>
        <ele>424.0</ele>
      </trkpt>
      <trkpt lat="42.455729" lon="18.699071">
        <time>1970-01-01T00:00:00+00:00</time>
        <ele>427.0</ele>
      </trkpt>
      <trkpt lat="42.455747" lon="18.69895">
        <time>1970-01-01T00:00:00+00:00</time>
        <ele>427.0</ele>
      </trkpt>
      <trkpt lat="42.455739" lon="18.698894">
        <time>1970-01-01T00:00:00+00:00</time>
        <ele>428.0</ele>
      </trkpt>
      <trkpt lat="42.455702" lon="18.698819">
        <time>1970-01-01T00:00:00+00:00</time>
        <ele>429.0</ele>
      </trkpt>
      <trkpt lat="42.455676" lon="18.698811">
        <time>1970-01-01T00:00:00+00:00</time>
        <ele>429.0</ele>
      </trkpt>
      <trkpt lat="42.455666" lon="18.698733">
        <time>1970-01-01T00:00:00+00:00</time>
        <ele>429.0</ele>
      </trkpt>
      <trkpt lat="42.455601" lon="18.698645">
        <time>1970-01-01T00:00:00+00:00</time>
        <ele>426.0</ele>
      </trkpt>
      <trkpt lat="42.455591" lon="18.698529">
        <time>1970-01-01T00:00:00+00:00</time>
        <ele>425.0</ele>
      </trkpt>
      <trkpt lat="42.455541" lon="18.698469">
        <time>1970-01-01T00:00:00+00:00</time>
        <ele>422.0</ele>
      </trkpt>
      <trkpt lat="42.455532" lon="18.698321">
        <time>1970-01-01T00:00:00+00:00</time>
        <ele>419.0</ele>
      </trkpt>
      <trkpt lat="42.455532" lon="18.698321">
        <time>1970-01-01T00:00:00+00:00</time>
        <ele>419.0</ele>
      </trkpt>
      <trkpt lat="42.455541" lon="18.698469">
        <time>1970-01-01T00:00:00+00:00</time>
        <ele>422.0</ele>
      </trkpt>
      <trkpt lat="42.455591" lon="18.698529">
        <time>1970-01-01T00:00:00+00:00</time>
        <ele>425.0</ele>
      </trkpt>
      <trkpt lat="42.455601" lon="18.698645">
        <time>1970-01-01T00:00:00+00:00</time>
        <ele>426.0</ele>
      </trkpt>
      <trkpt lat="42.455666" lon="18.698733">
        <time>1970-01-01T00:00:00+00:00</time>
        <ele>429.0</ele>
      </trkpt>
      <trkpt lat="42.455676" lon="18.698811">
        <time>1970-01-01T00:00:00+00:00</time>
        <ele>429.0</ele>
      </trkpt>
      <trkpt lat="42.455702" lon="18.698819">
        <time>1970-01-01T00:00:00+00:00</time>
        <ele>429.0</ele>
      </trkpt>
      <trkpt lat="42.455739" lon="18.698894">
        <time>1970-01-01T00:00:00+00:00</time>
        <ele>428.0</ele>
      </trkpt>
      <trkpt lat="42.455747" lon="18.69895">
        <time>1970-01-01T00:00:00+00:00</time>
        <ele>427.0</ele>
      </trkpt>
      <trkpt lat="42.455729" lon="18.699071">
        <time>1970-01-01T00:00:00+00:00</time>
        <ele>427.0</ele>
      </trkpt>
      <trkpt lat="42.455745" lon="18.69924">
        <time>1970-01-01T00:00:00+00:00</time>
        <ele>424.0</ele>
      </trkpt>
      <trkpt lat="42.455747" lon="18.699594">
        <time>1970-01-01T00:00:00+00:00</time>
        <ele>420.0</ele>
      </trkpt>
      <trkpt lat="42.455727" lon="18.699726">
        <time>1970-01-01T00:00:00+00:00</time>
        <ele>419.0</ele>
      </trkpt>
      <trkpt lat="42.455749" lon="18.700144">
        <time>1970-01-01T00:00:00+00:00</time>
        <ele>408.0</ele>
      </trkpt>
      <trkpt lat="42.455737" lon="18.700343">
        <time>1970-01-01T00:00:00+00:00</time>
        <ele>405.0</ele>
      </trkpt>
      <trkpt lat="42.455759" lon="18.700412">
        <time>1970-01-01T00:00:00+00:00</time>
        <ele>403.0</ele>
      </trkpt>
      <trkpt lat="42.455721" lon="18.70085">
        <time>1970-01-01T00:00:00+00:00</time>
        <ele>396.0</ele>
      </trkpt>
      <trkpt lat="42.455654" lon="18.701059">
        <time>1970-01-01T00:00:00+00:00</time>
        <ele>393.0</ele>
      </trkpt>
      <trkpt lat="42.455615" lon="18.701378">
        <time>1970-01-01T00:00:00+00:00</time>
        <ele>386.0</ele>
      </trkpt>
      <trkpt lat="42.455478" lon="18.701965">
        <time>1970-01-01T00:00:00+00:00</time>
        <ele>371.0</ele>
      </trkpt>
      <trkpt lat="42.45559" lon="18.702206">
        <time>1970-01-01T00:00:00+00:00</time>
        <ele>363.0</ele>
      </trkpt>
      <trkpt lat="42.455673" lon="18.702214">
        <time>1970-01-01T00:00:00+00:00</time>
        <ele>361.0</ele>
      </trkpt>
      <trkpt lat="42.455761" lon="18.702148">
        <time>1970-01-01T00:00:00+00:00</time>
        <ele>361.0</ele>
      </trkpt>
      <trkpt lat="42.455791" lon="18.702105">
        <time>1970-01-01T00:00:00+00:00</time>
        <ele>361.0</ele>
      </trkpt>
      <trkpt lat="42.455816" lon="18.702038">
        <time>1970-01-01T00:00:00+00:00</time>
        <ele>362.0</ele>
      </trkpt>
      <trkpt lat="42.455892" lon="18.701922">
        <time>1970-01-01T00:00:00+00:00</time>
        <ele>362.0</ele>
      </trkpt>
      <trkpt lat="42.455939" lon="18.701772">
        <time>1970-01-01T00:00:00+00:00</time>
        <ele>365.0</ele>
      </trkpt>
      <trkpt lat="42.455985" lon="18.701684">
        <time>1970-01-01T00:00:00+00:00</time>
        <ele>367.0</ele>
      </trkpt>
      <trkpt lat="42.456074" lon="18.701558">
        <time>1970-01-01T00:00:00+00:00</time>
        <ele>369.0</ele>
      </trkpt>
      <trkpt lat="42.456119" lon="18.701534">
        <time>1970-01-01T00:00:00+00:00</time>
        <ele>368.0</ele>
      </trkpt>
      <trkpt lat="42.456208" lon="18.701547">
        <time>1970-01-01T00:00:00+00:00</time>
        <ele>365.0</ele>
      </trkpt>
      <trkpt lat="42.456341" lon="18.701386">
        <time>1970-01-01T00:00:00+00:00</time>
        <ele>366.0</ele>
      </trkpt>
      <trkpt lat="42.45641" lon="18.701155">
        <time>1970-01-01T00:00:00+00:00</time>
        <ele>367.0</ele>
      </trkpt>
      <trkpt lat="42.456566" lon="18.700807">
        <time>1970-01-01T00:00:00+00:00</time>
        <ele>365.0</ele>
      </trkpt>
      <trkpt lat="42.456634" lon="18.700592">
        <time>1970-01-01T00:00:00+00:00</time>
        <ele>364.0</ele>
      </trkpt>
      <trkpt lat="42.456721" lon="18.700458">
        <time>1970-01-01T00:00:00+00:00</time>
        <ele>361.0</ele>
      </trkpt>
      <trkpt lat="42.456892" lon="18.700083">
        <time>1970-01-01T00:00:00+00:00</time>
        <ele>355.0</ele>
      </trkpt>
      <trkpt lat="42.457107" lon="18.699576">
        <time>1970-01-01T00:00:00+00:00</time>
        <ele>349.0</ele>
      </trkpt>
      <trkpt lat="42.457132" lon="18.699474">
        <time>1970-01-01T00:00:00+00:00</time>
        <ele>348.0</ele>
      </trkpt>
      <trkpt lat="42.457356" lon="18.698894">
        <time>1970-01-01T00:00:00+00:00</time>
        <ele>339.0</ele>
      </trkpt>
      <trkpt lat="42.457453" lon="18.698739">
        <time>1970-01-01T00:00:00+00:00</time>
        <ele>333.0</ele>
      </trkpt>
      <trkpt lat="42.45754" lon="18.698535">
        <time>1970-01-01T00:00:00+00:00</time>
        <ele>327.0</ele>
      </trkpt>
      <trkpt lat="42.457615" lon="18.698336">
        <time>1970-01-01T00:00:00+00:00</time>
        <ele>321.0</ele>
      </trkpt>
      <trkpt lat="42.457748" lon="18.697832">
        <time>1970-01-01T00:00:00+00:00</time>
        <ele>310.0</ele>
      </trkpt>
      <trkpt lat="42.457819" lon="18.697293">
        <time>1970-01-01T00:00:00+00:00</time>
        <ele>304.0</ele>
      </trkpt>
      <trkpt lat="42.457868" lon="18.697103">
        <time>1970-01-01T00:00:00+00:00</time>
        <ele>301.0</ele>
      </trkpt>
      <trkpt lat="42.457892" lon="18.696907">
        <time>1970-01-01T00:00:00+00:00</time>
        <ele>300.0</ele>
      </trkpt>
      <trkpt lat="42.457946" lon="18.696719">
        <time>1970-01-01T00:00:00+00:00</time>
        <ele>296.0</ele>
      </trkpt>
      <trkpt lat="42.458041" lon="18.696271">
        <time>1970-01-01T00:00:00+00:00</time>
        <ele>291.0</ele>
      </trkpt>
      <trkpt lat="42.458048" lon="18.69611">
        <time>1970-01-01T00:00:00+00:00</time>
        <ele>291.0</ele>
      </trkpt>
      <trkpt lat="42.458096" lon="18.695989">
        <time>1970-01-01T00:00:00+00:00</time>
        <ele>288.0</ele>
      </trkpt>
      <trkpt lat="42.458112" lon="18.695815">
        <time>1970-01-01T00:00:00+00:00</time>
        <ele>287.0</ele>
      </trkpt>
      <trkpt lat="42.458157" lon="18.695587">
        <time>1970-01-01T00:00:00+00:00</time>
        <ele>284.0</ele>
      </trkpt>
      <trkpt lat="42.458185" lon="18.694823">
        <time>1970-01-01T00:00:00+00:00</time>
        <ele>280.0</ele>
      </trkpt>
      <trkpt lat="42.458252" lon="18.694426">
        <time>1970-01-01T00:00:00+00:00</time>
        <ele>275.0</ele>
      </trkpt>
      <trkpt lat="42.458276" lon="18.694149">
        <time>1970-01-01T00:00:00+00:00</time>
        <ele>273.0</ele>
      </trkpt>
      <trkpt lat="42.458355" lon="18.6936">
        <time>1970-01-01T00:00:00+00:00</time>
        <ele>268.0</ele>
      </trkpt>
      <trkpt lat="42.458458" lon="18.693095">
        <time>1970-01-01T00:00:00+00:00</time>
        <ele>259.0</ele>
      </trkpt>
      <trkpt lat="42.458529" lon="18.692934">
        <time>1970-01-01T00:00:00+00:00</time>
        <ele>255.0</ele>
      </trkpt>
      <trkpt lat="42.458812" lon="18.69176">
        <time>1970-01-01T00:00:00+00:00</time>
        <ele>230.0</ele>
      </trkpt>
      <trkpt lat="42.458882" lon="18.691293">
        <time>1970-01-01T00:00:00+00:00</time>
        <ele>220.0</ele>
      </trkpt>
      <trkpt lat="42.458941" lon="18.691094">
        <time>1970-01-01T00:00:00+00:00</time>
        <ele>217.0</ele>
      </trkpt>
      <trkpt lat="42.45903" lon="18.690882">
        <time>1970-01-01T00:00:00+00:00</time>
        <ele>213.0</ele>
      </trkpt>
      <trkpt lat="42.459238" lon="18.690542">
        <time>1970-01-01T00:00:00+00:00</time>
        <ele>208.0</ele>
      </trkpt>
      <trkpt lat="42.459319" lon="18.690367">
        <time>1970-01-01T00:00:00+00:00</time>
        <ele>206.0</ele>
      </trkpt>
      <trkpt lat="42.459444" lon="18.689919">
        <time>1970-01-01T00:00:00+00:00</time>
        <ele>197.0</ele>
      </trkpt>
      <trkpt lat="42.459608" lon="18.689496">
        <time>1970-01-01T00:00:00+00:00</time>
        <ele>191.0</ele>
      </trkpt>
      <trkpt lat="42.459739" lon="18.689045">
        <time>1970-01-01T00:00:00+00:00</time>
        <ele>186.0</ele>
      </trkpt>
      <trkpt lat="42.459837" lon="18.688828">
        <time>1970-01-01T00:00:00+00:00</time>
        <ele>182.0</ele>
      </trkpt>
      <trkpt lat="42.460692" lon="18.687307">
        <time>1970-01-01T00:00:00+00:00</time>
        <ele>125.0</ele>
      </trkpt>
      <trkpt lat="42.46127" lon="18.686175">
        <time>1970-01-01T00:00:00+00:00</time>
        <ele>91.0</ele>
      </trkpt>
      <trkpt lat="42.461424" lon="18.685749">
        <time>1970-01-01T00:00:00+00:00</time>
        <ele>81.0</ele>
      </trkpt>
      <trkpt lat="42.461715" lon="18.685284">
        <time>1970-01-01T00:00:00+00:00</time>
        <ele>70.0</ele>
      </trkpt>
      <trkpt lat="42.46176" lon="18.685274">
        <time>1970-01-01T00:00:00+00:00</time>
        <ele>69.0</ele>
      </trkpt>
      <trkpt lat="42.461828" lon="18.685218">
        <time>1970-01-01T00:00:00+00:00</time>
        <ele>67.0</ele>
      </trkpt>
      <trkpt lat="42.461905" lon="18.685062">
        <time>1970-01-01T00:00:00+00:00</time>
        <ele>63.0</ele>
      </trkpt>
      <trkpt lat="42.461899" lon="18.685009">
        <time>1970-01-01T00:00:00+00:00</time>
        <ele>63.0</ele>
      </trkpt>
      <trkpt lat="42.461816" lon="18.684802">
        <time>1970-01-01T00:00:00+00:00</time>
        <ele>61.0</ele>
      </trkpt>
      <trkpt lat="42.461779" lon="18.684525">
        <time>1970-01-01T00:00:00+00:00</time>
        <ele>56.0</ele>
      </trkpt>
      <trkpt lat="42.461648" lon="18.684347">
        <time>1970-01-01T00:00:00+00:00</time>
        <ele>51.0</ele>
      </trkpt>
      <trkpt lat="42.461638" lon="18.684261">
        <time>1970-01-01T00:00:00+00:00</time>
        <ele>49.0</ele>
      </trkpt>
      <trkpt lat="42.461658" lon="18.684156">
        <time>1970-01-01T00:00:00+00:00</time>
        <ele>47.0</ele>
      </trkpt>
      <trkpt lat="42.461794" lon="18.683868">
        <time>1970-01-01T00:00:00+00:00</time>
        <ele>37.0</ele>
      </trkpt>
      <trkpt lat="42.461856" lon="18.683812">
        <time>1970-01-01T00:00:00+00:00</time>
        <ele>37.0</ele>
      </trkpt>
      <trkpt lat="42.461932" lon="18.68378">
        <time>1970-01-01T00:00:00+00:00</time>
        <ele>36.0</ele>
      </trkpt>
      <trkpt lat="42.461989" lon="18.683795">
        <time>1970-01-01T00:00:00+00:00</time>
        <ele>38.0</ele>
      </trkpt>
      <trkpt lat="42.462174" lon="18.684064">
        <time>1970-01-01T00:00:00+00:00</time>
        <ele>44.0</ele>
      </trkpt>
      <trkpt lat="42.462242" lon="18.684123">
        <time>1970-01-01T00:00:00+00:00</time>
        <ele>44.0</ele>
      </trkpt>
      <trkpt lat="42.462333" lon="18.684135">
        <time>1970-01-01T00:00:00+00:00</time>
        <ele>42.0</ele>
      </trkpt>
      <trkpt lat="42.462576" lon="18.684022">
        <time>1970-01-01T00:00:00+00:00</time>
        <ele>33.0</ele>
      </trkpt>
      <trkpt lat="42.462787" lon="18.683955">
        <time>1970-01-01T00:00:00+00:00</time>
        <ele>24.0</ele>
      </trkpt>
      <trkpt lat="42.462913" lon="18.683872">
        <time>1970-01-01T00:00:00+00:00</time>
        <ele>18.0</ele>
      </trkpt>
      <trkpt lat="42.463046" lon="18.683824">
        <time>1970-01-01T00:00:00+00:00</time>
        <ele>14.0</ele>
      </trkpt>
      <trkpt lat="42.463267" lon="18.683903">
        <time>1970-01-01T00:00:00+00:00</time>
        <ele>12.0</ele>
      </trkpt>
      <trkpt lat="42.463307" lon="18.68388">
        <time>1970-01-01T00:00:00+00:00</time>
        <ele>11.0</ele>
      </trkpt>
      <trkpt lat="42.463318" lon="18.683833">
        <time>1970-01-01T00:00:00+00:00</time>
        <ele>9.0</ele>
      </trkpt>
      <trkpt lat="42.463311" lon="18.683755">
        <time>1970-01-01T00:00:00+00:00</time>
        <ele>7.0</ele>
      </trkpt>
      <trkpt lat="42.463271" lon="18.683686">
        <time>1970-01-01T00:00:00+00:00</time>
        <ele>6.0</ele>
      </trkpt>
      <trkpt lat="42.463076" lon="18.683569">
        <time>1970-01-01T00:00:00+00:00</time>
        <ele>5.0</ele>
      </trkpt>
      <trkpt lat="42.462948" lon="18.683395">
        <time>1970-01-01T00:00:00+00:00</time>
        <ele>4.0</ele>
      </trkpt>
      <trkpt lat="42.462923" lon="18.683285">
        <time>1970-01-01T00:00:00+00:00</time>
        <ele>4.0</ele>
      </trkpt>
      <trkpt lat="42.462973" lon="18.683219">
        <time>1970-01-01T00:00:00+00:00</time>
        <ele>3.0</ele>
      </trkpt>
      <trkpt lat="42.462795" lon="18.683062">
        <time>1970-01-01T00:00:00+00:00</time>
        <ele>3.0</ele>
      </trkpt>
      <trkpt lat="42.462557" lon="18.682811">
        <time>1970-01-01T00:00:00+00:00</time>
        <ele>3.0</ele>
      </trkpt>
      <trkpt lat="42.462425" lon="18.682731">
        <time>1970-01-01T00:00:00+00:00</time>
        <ele>2.0</ele>
      </trkpt>
      <trkpt lat="42.462315" lon="18.682704">
        <time>1970-01-01T00:00:00+00:00</time>
        <ele>3.0</ele>
      </trkpt>
      <trkpt lat="42.462274" lon="18.682704">
        <time>1970-01-01T00:00:00+00:00</time>
        <ele>3.0</ele>
      </trkpt>
    </trkseg>
  </trk>
</gpx>
